CAPE
0 314 70 0 0 6 56 9 31 668 1185 1282 1495 1493 1226 1696 1652 1800 1998 2108 2097 2142 2214 2227 2223 2290 1913 2009 2040 2214 2543 2665 2720 2844 2764 2921 2818 2692 2818 2740 2586 2308
0 167 327 2 0 0 0 4 32 353 994 1204 1297 1438 1256 1345 1692 1543 1914 2002 2046 1960 2022 2243 2190 2221 1913 1850 2231 2273 2423 2538 2565 2785 2924 3075 2890 2784 2727 2687 2717 2659
1 38 298 31 0 0 0 0 1 228 653 1102 1224 1317 1390 1353 1433 1634 1697 1875 1920 1906 1885 2345 2223 2233 1992 1780 2039 2199 2361 2491 2422 2543 2762 2934 2878 2748 2697 2865 2868 2706
4 2 160 105 0 0 0 0 0 43 319 828 1175 1239 1367 1449 1414 1441 1591 2168 1782 1838 1772 2047 2346 2268 2108 2070 2046 2010 1994 2126 2261 2488 2587 2564 2528 2388 2454 2588 2654 2563
8 4 16 107 20 0 0 0 0 0 149 762 1114 1171 1270 1412 1453 1418 1329 1521 1770 1815 1774 1751 2296 2234 2140 2120 2205 2096 2166 2055 2070 2223 2299 2359 2283 2190 2093 1914 2120 2152
18 9 7 13 21 8 0 0 0 0 0 205 459 1084 1195 1365 1414 1374 1317 1320 1642 1733 1751 1689 2037 2229 2158 2123 2265 2169 2156 2239 2225 2242 2190 2215 2370 2464 2125 1953 1947 2038
88 9 7 0 0 0 15 1 0 0 0 0 295 516 820 796 959 1106 1169 1306 1600 1647 1679 1726 1869 2199 2218 2156 2232 2301 2210 2254 2305 2350 2294 2185 2220 2349 2322 1953 1827 1754
208 34 5 5 0 0 0 26 30 6 0 0 47 292 562 759 526 470 532 860 1592 1637 1648 1738 1823 2073 2270 2227 2180 2300 2386 2332 2300 2372 2400 2284 2246 2309 2271 2244 2140 1957
266 169 28 1 0 0 0 0 69 169 121 48 40 121 300 602 707 573 581 625 1152 1570 1607 1694 1846 1956 2176 2318 2242 2219 2304 2364 2354 2289 2356 2373 2322 2345 2289 2126 2250 2236
366 295 155 21 0 0 0 0 0 66 353 268 184 170 200 247 333 697 696 696 706 1265 1537 1636 1755 1869 2018 2256 2328 2283 2241 2258 2289 2249 2274 2345 2347 2296 2281 2125 2119 2320
548 430 317 164 22 0 0 0 0 0 42 328 325 283 283 206 130 327 759 805 738 807 1250 1518 1657 1745 1818 2033 2252 2290 2257 2210 2186 2180 2180 2241 2255 2194 2424 2146 2062 2114
720 546 442 308 146 12 0 0 0 0 0 4 199 255 282 302 183 24 150 767 900 807 880 1206 1489 1658 1732 1800 1990 2181 2223 2200 2167 2148 2124 2134 2216 2265 2246 2268 2163 2095
1036 807 535 406 282 132 5 0 0 0 0 0 0 44 111 244 314 156 25 182 800 952 880 918 1107 1403 1657 1742 1760 1874 2092 2154 2146 2128 2108 2038 2025 2184 2320 2360 2359 2288
1245 1084 896 670 387 245 104 8 0 0 0 0 0 0 0 26 188 300 126 44 325 857 1008 984 968 1011 1222 1498 1636 1659 1782 2008 2065 2073 2060 2015 1952 1923 2030 2194 2290 2368
1821 1542 1159 1104 996 724 278 112 16 0 0 0 0 0 0 0 5 137 278 150 73 459 969 1150 1142 1057 1052 1176 1368 1514 1581 1782 1955 2014 2006 1996 1987 1956 1892 1926 2107 2316
2103 1990 1783 1539 1317 1182 974 604 156 46 9 0 0 0 0 0 0 19 162 276 172 151 525 1045 1320 1348 1334 1203 1289 1417 1479 1630 1843 1955 1992 1980 1972 1990 2030 1996 1953 2003
2351 2296 2143 1968 1784 1597 1460 1219 856 363 154 76 33 7 0 4 11 16 74 233 326 234 201 523 1108 1479 1535 1413 1363 1410 1442 1522 1696 1881 1964 2001 1966 1936 1939 2024 2088 2085
2503 2473 2412 2298 2167 2035 1828 1582 1302 1000 649 251 179 143 110 56 45 34 57 168 336 389 322 327 541 1023 1525 1638 1546 1501 1501 1468 1516 1695 1879 1976 2011 1983 1930 1896 1937 2044
2533 2511 2484 2431 2364 2234 2072 1866 1627 1410 1104 721 403 283 233 189 115 76 74 132 298 449 513 503 481 341 1000 1543 1711 1666 1601 1522 1438 1463 1640 1826 1953 2013 2021 1973 1904 1876
2781 2704 2630 2544 2490 2404 2221 2080 1914 1722 1495 1134 720 514 359 305 215 148 102 109 228 381 609 732 734 699 715 994 1457 1714 1733 1686 1577 1469 1468 1586 1730 1880 1994 2050 2036 1970
2851 2840 2798 2749 2675 2577 2454 2344 2194 1897 1648 1340 964 765 599 456 363 243 175 158 195 341 504 784 992 1031 953 917 1061 1415 1670 1745 1674 1549 1499 1543 1603 1661 1760 1876 1989 2039
2663 2698 2684 2758 2774 2727 2689 2605 2477 2357 2113 1550 1224 961 824 708 586 504 361 262 201 346 481 676 984 1230 1304 1228 1164 1217 1433 1604 1648 1615 1589 1606 1647 1701 1732 1748 1790 1892
2426 2468 2494 2484 2596 2721 2720 2708 2647 2568 2501 2268 1592 1226 978 875 801 710 684 504 368 426 577 697 853 1152 1475 1537 1475 1413 1392 1410 1508 1598 1663 1709 1684 1700 1772 1843 1881 1872
2181 2264 2313 2353 2486 2614 2687 2687 2676 2689 2693 2538 2211 1611 1290 1058 912 801 866 820 688 541 700 882 948 1154 1443 1670 1706 1677 1598 1550 1561 1599 1671 1774 1806 1768 1711 1693 1746 2515
1966 2046 2052 2114 2297 2466 2610 2662 2691 2705 2693 2565 2395 2070 1459 1202 1014 848 984 990 953 861 826 1044 1143 1274 1448 1718 1824 1810 1787 1755 1721 1752 1788 1845 1897 1905 1867 1818 1744 2098
1997 1899 1917 2046 2293 2347 2434 2565 2638 2664 2624 2551 2427 2215 1851 1300 1077 908 1093 1128 1135 1106 1006 1038 1234 1391 1501 1735 1912 1938 1916 1874 1834 1849 1890 1931 1976 2003 2008 1989 1953 1876
Wind_Speed
nan 7 nan nan nan nan nan nan nan 3 2 3 2 3 3 4 4 4 3 4 4 5 7 9 10 11 10 11 13 13 12 13 12 10 9 9 10 9 9 9 8 10
nan 7 6 nan nan nan nan nan nan 4 3 3 3 3 4 5 5 4 4 4 4 5 6 8 10 11 12 11 12 12 12 11 12 9 9 9 10 8 10 10 9 9
nan nan 6 nan nan nan nan nan nan 6 5 3 3 4 4 6 5 5 4 4 4 5 6 7 9 11 12 11 11 10 9 10 11 10 9 11 10 9 10 10 9 9
nan nan 6 5 nan nan nan nan nan nan 8 7 5 5 5 5 5 4 5 4 4 5 5 6 8 9 11 11 10 11 11 10 10 9 10 11 10 10 11 9 10 10
nan nan nan 7 nan nan nan nan nan nan 8 6 7 7 6 7 6 5 4 4 4 4 4 5 6 8 9 10 10 11 12 12 11 10 10 11 12 10 11 9 9 9
nan nan nan nan nan nan nan nan nan nan nan 8 6 8 7 7 7 7 5 2 2 3 3 4 6 7 8 9 10 11 11 12 12 10 11 12 11 10 10 9 8 9
nan nan nan nan nan nan nan nan nan nan nan nan 9 8 8 7 7 7 6 3 1 1 2 3 4 6 7 8 9 10 11 11 11 10 11 12 11 12 10 9 9 8
11 nan nan nan nan nan nan nan nan nan nan nan nan 7 8 6 6 6 6 4 2 1 2 2 3 4 5 6 8 9 10 10 10 10 10 10 9 11 11 10 8 8
13 13 nan nan nan nan nan nan nan 6 7 nan nan 7 7 7 6 6 5 5 3 2 3 2 2 2 3 4 6 7 8 9 9 9 9 9 10 11 11 9 8 7
14 14 12 nan nan nan nan nan nan nan 7 6 6 7 6 6 6 6 6 5 4 3 4 3 2 1 1 3 4 5 7 7 7 7 8 8 9 9 9 9 9 8
11 13 12 10 nan nan nan nan nan nan nan 5 6 6 6 7 7 7 6 6 5 4 4 3 3 2 1 1 2 3 5 5 5 6 6 7 7 7 8 8 8 9
9 11 10 10 10 nan nan nan nan nan nan nan 6 5 6 6 6 nan 7 6 5 5 4 3 3 3 2 1 2 1 2 3 4 5 5 5 6 6 6 6 7 8
8 9 10 11 12 13 nan nan nan nan nan nan nan nan 5 6 5 6 nan 8 6 6 5 5 4 4 3 2 1 1 1 1 2 3 4 3 3 4 4 5 6 6
8 10 12 13 15 16 16 nan nan nan nan nan nan nan nan nan 5 5 7 nan 7 6 6 6 5 4 4 4 3 3 3 2 2 1 2 2 2 2 2 3 5 5
11 13 14 15 16 17 17 16 nan nan nan nan nan nan nan nan nan 6 7 7 nan 7 6 6 5 5 5 5 4 4 4 4 4 3 2 1 1 1 0 1 2 3
12 14 15 16 16 16 16 16 17 nan nan nan nan nan nan nan nan nan 7 7 7 7 6 6 5 6 5 7 6 6 6 5 6 5 4 3 2 2 2 2 2 2
12 13 15 14 14 15 16 16 17 18 18 nan nan nan nan nan nan nan nan 9 8 7 7 6 6 7 6 7 7 7 7 7 7 7 6 5 4 4 4 3 3 2
7 9 12 13 14 14 14 16 18 18 19 18 18 16 16 nan nan nan nan 11 11 9 8 7 7 5 7 8 8 7 7 7 9 9 8 7 6 6 5 5 5 4
6 7 9 12 13 14 15 17 17 17 17 17 16 17 18 16 14 nan nan 13 12 11 10 8 8 6 8 9 8 8 7 6 9 10 10 9 8 8 7 6 7 7
5 6 8 11 15 16 17 16 15 14 14 16 18 19 18 16 15 13 13 14 13 13 13 12 10 8 10 10 9 9 8 8 9 10 11 10 9 9 9 8 9 9
9 5 5 10 15 17 16 14 13 14 14 16 17 16 16 15 15 14 14 14 14 15 16 14 13 10 12 11 11 11 9 9 8 11 13 12 11 11 10 10 10 10
8 6 5 8 13 16 14 12 12 13 14 16 16 16 16 17 17 15 13 13 14 15 15 13 13 13 15 14 13 12 12 12 10 10 12 12 12 12 12 13 12 11
9 9 6 6 10 13 13 12 13 15 17 19 17 15 15 15 14 14 15 14 14 14 14 13 14 15 16 16 15 15 16 14 12 11 11 11 11 12 13 13 14 14
14 13 10 9 10 11 13 16 17 19 18 19 17 16 14 14 16 17 17 16 14 12 13 14 14 16 17 16 16 17 20 17 15 13 11 10 10 11 13 15 15 12
19 17 14 11 9 10 15 17 18 18 20 20 19 18 16 18 18 17 16 16 13 12 10 11 13 16 17 16 16 19 20 18 18 16 12 11 11 11 12 15 16 15
22 20 16 13 10 12 16 17 21 22 21 20 20 20 20 19 18 17 14 14 15 13 13 12 12 15 18 15 16 18 19 19 19 17 13 11 12 12 13 16 17 18
Wind_Direction
nan 172 nan nan nan nan nan nan nan 193 182 199 200 174 174 168 181 180 167 158 131 116 105 97 96 97 96 94 87 85 83 80 82 81 79 77 82 81 81 82 80 76
nan 176 179 nan nan nan nan nan nan 196 192 194 191 199 182 193 180 190 174 146 130 107 99 93 94 97 102 101 99 90 88 87 86 93 82 78 82 84 83 83 76 80
nan nan 189 nan nan nan nan nan nan 192 195 171 196 208 203 194 195 185 174 152 123 106 94 93 93 100 105 109 107 104 96 92 86 87 79 75 81 76 80 80 82 77
nan nan 197 193 nan nan nan nan nan nan 190 193 189 207 216 208 205 195 180 150 129 106 95 98 96 106 113 113 113 110 105 97 91 86 75 78 78 73 73 76 78 82
nan nan nan 201 nan nan nan nan nan nan 200 194 197 207 218 219 220 208 195 166 142 114 103 92 107 109 116 116 114 110 110 101 100 91 82 78 76 71 74 68 73 75
nan nan nan nan nan nan nan nan nan nan nan 208 206 213 219 227 228 226 215 190 153 110 97 101 105 113 115 115 112 109 108 102 97 93 88 83 84 77 73 64 64 70
nan nan nan nan nan nan nan nan nan nan nan nan 214 217 223 229 231 231 232 221 210 108 70 88 102 109 119 120 115 112 112 106 102 92 84 84 84 83 81 71 64 65
229 nan nan nan nan nan nan nan nan nan nan nan nan 222 231 239 245 237 237 245 250 329 17 56 86 101 113 122 113 114 113 115 104 93 84 80 79 76 75 73 71 70
224 228 nan nan nan nan nan nan nan 206 209 nan nan 225 232 246 257 262 262 268 285 322 345 11 40 76 105 108 108 109 108 111 108 96 82 74 68 67 67 67 68 69
226 225 229 nan nan nan nan nan nan nan 213 210 211 217 233 239 255 272 277 286 306 322 336 350 358 16 70 90 87 96 104 102 107 101 88 76 64 59 59 55 55 57
239 233 231 230 nan nan nan nan nan nan nan 217 219 215 223 233 238 248 261 277 292 306 316 334 341 335 344 63 93 95 91 97 99 101 93 81 69 59 51 46 46 43
242 239 234 233 227 nan nan nan nan nan nan nan 219 226 231 235 246 nan 253 265 276 288 294 305 304 300 315 356 34 74 104 103 104 100 93 82 73 61 48 41 39 37
230 233 231 226 226 222 nan nan nan nan nan nan nan nan 233 237 245 256 nan 261 268 275 287 291 291 287 293 307 303 284 316 47 93 101 103 99 83 60 46 32 29 29
218 225 223 223 221 221 220 nan nan nan nan nan nan nan nan nan 246 256 254 nan 264 269 280 286 298 300 300 304 292 286 288 301 333 58 93 116 121 92 60 41 23 14
217 218 220 221 221 222 221 218 nan nan nan nan nan nan nan nan nan 246 256 261 nan 269 274 278 292 302 286 287 284 283 280 292 304 323 346 34 146 165 249 32 26 11
219 218 221 224 225 223 222 219 218 nan nan nan nan nan nan nan nan nan 252 268 275 278 276 270 269 264 291 339 320 282 278 276 280 291 295 289 282 253 245 283 356 358
223 221 222 226 226 226 224 221 219 219 219 nan nan nan nan nan nan nan nan 256 270 275 280 269 262 257 315 314 326 333 288 274 279 278 276 275 274 271 267 278 283 315
239 237 233 230 229 228 227 226 224 221 219 221 220 221 222 nan nan nan nan 246 252 263 271 271 263 281 308 309 319 327 310 276 267 269 270 270 268 271 266 267 277 282
333 310 277 252 241 234 229 228 228 226 223 223 224 224 225 226 226 nan nan 242 248 257 262 265 258 286 298 307 313 317 321 296 256 261 266 268 269 271 270 269 266 266
289 306 288 260 245 238 234 232 229 226 225 224 225 227 228 227 228 231 236 242 246 250 253 254 257 275 298 303 305 310 310 291 251 257 258 261 267 271 268 266 264 264
248 252 263 256 246 239 236 233 229 223 224 224 226 229 229 228 228 228 231 238 243 245 245 248 250 280 287 299 302 305 308 289 255 250 251 252 255 260 267 268 263 262
250 244 240 252 250 241 234 229 226 224 223 222 221 221 220 221 220 221 225 231 240 246 246 244 246 274 281 290 298 299 303 268 256 253 252 253 253 253 258 262 265 265
235 238 230 244 252 244 233 226 224 223 221 221 217 216 217 217 216 217 216 222 231 240 246 241 239 259 278 285 290 297 279 261 259 252 248 251 255 259 260 261 264 265
223 225 218 220 231 231 223 219 221 223 226 226 220 217 214 214 216 213 213 216 223 232 242 242 238 252 274 279 286 288 280 269 261 257 252 249 248 255 259 260 262 278
223 220 213 211 219 223 221 220 221 224 227 229 225 222 219 221 224 221 218 217 218 226 244 251 241 249 271 279 285 283 278 264 263 257 254 249 247 245 253 257 258 261
215 212 207 204 205 218 220 218 219 222 226 231 232 230 227 228 229 229 227 222 221 223 231 242 245 246 260 284 284 284 289 272 260 260 256 251 247 244 244 252 257 257